Regional Weather Roundup
Issued by NWS

Home | Current Version | Previous Version | Text Only | Print | Product List | Glossary Off
Versions: 1 2 3 4 5 6 7 8 9 10 11 12 13 14 15 16 17 18 19 20 21 22 23 24 25 26 27 28 29 30 31 32 33 34 35 36 37 38 39 40 41 42 43 44 45 46 47 48 49 50

000
ASUS43 KDTX 202201
RWRMI
MICHIGAN HOURLY REGIONAL WEATHER ROUNDUP
NATIONAL WEATHER SERVICE DETROIT/PONTIAC MI
600 PM EDT MON OCT 20 2014

NOTE: "FAIR" INDICATES FEW OR NO CLOUDS BELOW 12,000 FEET WITH NO
SIGNIFICANT WEATHER AND/OR OBSTRUCTION TO VISIBILITY.

MIZ047>049-052>055-059>063-066>070-074>076-081>083-202300-
SOUTHEAST LOWER MICHIGAN

CITY           SKY/WX    TMP DP  RH WIND       PRES   REMARKS
ADRIAN         CLOUDY    53  50  89 W3        29.83R
ALMA           CLOUDY    56  47  69 N9        29.81R
ANN ARBOR      CLOUDY    54  47  77 W8        29.81R
BAD AXE        LGT RAIN  51  50  94 W3        29.80R
CARO           CLOUDY    54  49  82 CALM      29.79S
DETROIT CITY   CLOUDY    58  48  69 W6        29.80R
DETROIT        CLOUDY    56  47  71 SW13      29.81R
FLINT          CLOUDY    57  48  72 W5        29.80R
GROSSE ILE     CLOUDY    55  48  76 SW7       29.80R
HILLSDALE      MOCLDY    55  53  91 W5        29.82S
HOWELL         CLOUDY    55  48  79 W5        29.80R

CITY           SKY/WX    TMP DP  RH WIND       PRES   REMARKS
JACKSON        CLOUDY    55  48  77 SW6       29.81S
LAMBERTVILLE   CLOUDY    55  48  76 W5        29.83R
LANSING        CLOUDY    56  50  80 NW3       29.81R
LAPEER         CLOUDY    55  47  75 CALM      29.80R
MASON          CLOUDY    56  48  74 CALM      29.80R
MONROE         CLOUDY    54  50  87 W6        29.81R
MT. CLEMENS    CLOUDY    55  47  73 W6        29.78R
PONTIAC        MOCLDY    54  47  77 W6        29.79R
PORT HOPE        N/A     52  47  83 W3        29.78R
PORT HURON     CLOUDY    52  50  93 CALM      29.79S
TRI CITIES     CLOUDY    57  49  74 NW5       29.81R
TROY           CLOUDY    58  47  67 W5        29.81S
SAGINAW HB     CLOUDY    55  48  76 CALM      29.79S
$$
MIZ043>046-050>051-056>058-064>065-071>073-077>080-202300-
SOUTHWEST LOWER MICHIGAN

CITY           SKY/WX    TMP DP  RH WIND       PRES   REMARKS
BATTLE CREEK   CLOUDY    58  48  69 W14       29.83R
BENTON HARBOR  CLOUDY    53  47  79 VRB5      29.89R
BIG RAPIDS     CLOUDY    51  48  89 NW8       29.85R
COLDWATER      MOCLDY    58  51  77 W7        29.83R
FREMONT        CLOUDY    50  43  76 NW14      29.87R
HOLLAND        CLOUDY    55  46  71 NW13G21   29.87R
GRAND RAPIDS   CLOUDY    57  46  66 NW12      29.84R
IONIA          CLOUDY    57  47  70 NW6       29.81R
KALAMAZOO      CLOUDY    56  48  74 W8        29.84R
LUDINGTON      CLOUDY    49  46  87 N9        29.90R
MARSHALL       CLOUDY    56  48  75 W7        29.81R
MOUNT PLEASANT CLOUDY    52  45  75 NW9       29.82R
MUSKEGON       CLOUDY    53  43  68 NW14      29.88R
SOUTH HAVEN    CLOUDY    54  48  81 N12G20    29.88R
$$
MIZ016>042-202300-
NORTHERN LOWER MICHIGAN

CITY           SKY/WX    TMP DP  RH WIND       PRES   REMARKS
ALPENA         CLOUDY    48  46  93 W6        29.81R
BEAVER ISLAND  CLOUDY    48  42  81 NW7G16    29.87R
BELLAIRE       CLOUDY    49  43  80 N3        29.86R
CADILLAC       DRIZZLE   46  44  95 NW6       29.85R
CHARLEVOIX     CLOUDY    49  44  82 NW14      29.88R
FRANKFORT      CLOUDY    50  42  74 NW10      29.89R
GAYLORD        CLOUDY    46  41  82 MISG      29.83R
GRAYLING       CLOUDY    49  45  85 NW8       29.84R
HARBOR SPRINGS CLOUDY    49  42  75 NW6       29.84R
HOUGHTON LAKE  CLOUDY    47  43  86 NW9       29.84R
MANISTEE       CLOUDY    48  43  81 N9        29.89R
OSCODA         CLOUDY    50  47  88 NW7       29.79R
PELLSTON       CLOUDY    48  42  80 NW12      29.84R
TRAVERSE CITY  LGT RAIN  48  45  89 NW9       29.86R
$$
MIZ007>008-015-202300-
EASTERN UPPER MICHIGAN

CITY           SKY/WX    TMP DP  RH WIND       PRES   REMARKS
KINROSS        CLOUDY    46  45  93 NW9G20    29.82R
MACKINAC ISLAN CLOUDY    47  42  83 NW9G16    29.83R
NEWBERRY       CLOUDY    43  42  96 NW9       29.86R
S. S. MARIE    CLOUDY    48  44  86 NW9       29.81R
MUNISING         N/A     47  41  80 N21G28    29.91R
$$
MIZ004>006-011>014-085-202300-
CENTRAL UPPER MICHIGAN

CITY           SKY/WX    TMP DP  RH WIND       PRES   REMARKS
MANISTIQUE     CLOUDY    45  42  89 NW13      29.88R
ESCANABA       CLOUDY    46  39  76 N12       29.92R
MENOMINEE      CLOUDY    52  41  66 N9        29.91R
SAWYER-GWINN   CLOUDY    43  37  81 N17G23    29.93R
$$
MIZ001>003-009>011-084-202300-
WESTERN UPPER MICHIGAN

CITY           SKY/WX    TMP DP  RH WIND       PRES   REMARKS
IRON MOUNTAIN  CLOUDY    47  42  83 NW12      29.93R
HOUGHTON       CLOUDY    43  37  79 N9        29.97R
COPPER HARBOR    N/A     45  39  79 NE22G28   29.96R
IRONWOOD       CLOUDY    46  45  93 NW9       29.98R
$$

ABBREVIATIONS USED IN REMARKS
   TC - TEMPERATURE IN CELSIUS
  WCI - WIND CHILL INDEX
   HX - HEAT INDEX
  VSB - VISIBILITY




USA.gov is the U.S. government's official web portal to all federal, state and local government web resources and services.